Location: Jefferson Observatory
(34.1602°N, 83.6058°W)
Time: 14:17:49
(UTC-05:00)

Envisat - Visible Passes

Search period start: 21 February 2018 00:00
Search period end: 03 March 2018 00:00
Orbit: 764 x 766 km, 98.2° (Epoch: 21 February)

Date Brightness Start Highest point End Pass type
(mag) Time Alt. Az. Time Alt. Az. Time Alt. Az.
21 Feb 4.5 18:55:28 10° E 18:58:23 16° ENE 19:01:19 10° NNE visible
21 Feb 3.7 20:31:59 10° S 20:36:55 52° W 20:41:52 10° NNW visible
22 Feb 2.9 19:55:13 10° SSE 20:00:13 65° ENE 20:05:15 10° N visible
22 Feb 5.9 21:38:03 10° WSW 21:39:36 11° W 21:41:10 10° WNW visible
23 Feb 3.9 19:19:27 10° SE 19:23:42 28° ENE 19:27:58 10° NNE visible
23 Feb 4.8 20:58:17 10° SSW 21:02:35 28° W 21:06:56 10° NW visible
24 Feb 3.2 20:20:44 10° S 20:25:46 68° WSW 20:30:50 10° NNW visible
25 Feb 3.1 19:44:15 10° SSE 19:49:07 50° ENE 19:54:01 10° N visible
25 Feb 5.7 21:25:30 10° SW 21:28:22 15° W 21:31:15 10° WNW visible
26 Feb 4.1 19:08:51 10° ESE 19:12:40 22° ENE 19:16:29 10° NNE visible
26 Feb 4.4 20:46:46 10° SSW 20:51:24 36° W 20:56:04 10° NNW visible
27 Feb 2.9 20:09:33 10° SSE 20:14:38 88° W 20:19:44 10° NNW visible
28 Feb 3.4 19:33:22 10° SE 19:38:03 39° ENE 19:42:44 10° N visible
28 Feb 5.4 21:13:30 10° SW 21:17:08 20° W 21:20:47 10° NW visible
01 Mar 4.4 18:58:25 10° ESE 19:01:39 17° ENE 19:04:52 10° NNE visible
01 Mar 3.9 20:35:22 10° S 20:40:14 47° W 20:45:08 10° NNW visible
02 Mar 2.9 19:58:29 10° SSE 20:03:30 72° ENE 20:08:34 10° N visible
